This demonstration page uses our WeatherBlox Daily Observations layout. Learn more.

Left ArrowRight Arrow

Hourly Observations for December 27, 2019

Temp ( °F °C ) Dew Point ( °F °C ) Humidity (%) Winds ( mph kmh ) Pressure ( in mb ) Visibility ( mi km ) Precip ( " mm )
12:53 am 00:53 Clear 23 -5 15 -9.4 72 72 WSW 12 19 29.96 1015 10 16 0.00 0.00
1:53 am 01:53 Clear 25 -3.9 14 -10 63 63 SW 16 26 29.95 1014 10 16 0.00 0.00
2:53 am 02:53 Clear 26 -3.3 13 -10.6 57 57 SW 20 31 29.95 1014 10 16 0.00 0.00
3:53 am 03:53 Clear 24 -4.4 13 -10.6 62 62 WSW 17 28 29.96 1014 10 16 0.00 0.00
4:53 am 04:53 Clear 22 -5.6 13 -10.6 68 68 WSW 12 19 29.97 1015 10 16 0.00 0.00
5:53 am 05:53 Clear 21 -6.1 13 -10.6 71 71 WSW 17 28 29.97 1015 10 16 0.00 0.00
6:53 am 06:53 Clear 25 -3.9 14 -10 63 63 SW 20 31 29.94 1014 10 16 0.00 0.00
7:53 am 07:53 Clear 25 -3.9 14 -10 63 63 SW 21 33 29.96 1015 10 16 0.00 0.00
8:53 am 08:53 Sunny 26 -3.3 15 -9.4 63 63 SW 20 31 29.96 1015 10 16 0.00 0.00
9:53 am 09:53 Sunny 29 -1.7 16 -8.9 58 58 SW 21 33 29.97 1015 10 16 0.00 0.00
10:53 am 10:53 Sunny 31 -0.6 17 -8.3 56 56 SW 23 37 29.95 1014 10 16 0.00 0.00
11:53 am 11:53 Sunny 34 1.1 18 -7.8 52 52 SW 21 33 29.92 1013 10 16 0.00 0.00
12:53 pm 12:53 Sunny 35 1.7 18 -7.8 50 50 SW 22 35 29.90 1013 10 16 0.00 0.00
1:53 pm 13:53 Sunny 37 2.8 17 -8.3 44 44 WSW 18 30 29.89 1012 10 16 0.00 0.00
2:53 pm 14:53 Sunny 36 2.2 17 -8.3 46 46 SW 18 30 29.91 1013 10 16 0.00 0.00
3:53 pm 15:53 Sunny 35 1.7 18 -7.8 50 50 SW 10 17 29.93 1013 10 16 0.00 0.00
4:53 pm 16:53 Clear 26 -3.3 18 -7.8 71 71 SW 10 17 29.96 1015 10 16 0.00 0.00
5:53 pm 17:53 Clear 25 -3.9 17 -8.3 72 72 SW 12 19 29.97 1015 10 16 0.00 0.00
6:53 pm 18:53 Clear 23 -5 16 -8.9 74 74 SW 12 19 29.98 1015 10 16 0.00 0.00
7:53 pm 19:53 Clear 23 -5 16 -8.9 74 74 SW 13 20 29.99 1016 10 16 0.00 0.00
8:53 pm 20:53 Clear 21 -6.1 15 -9.4 78 78 SW 8 13 30.01 1016 10 16 0.00 0.00
9:53 pm 21:53 Clear 21 -6.1 15 -9.4 78 78 SSW 9 15 30.03 1017 10 16 0.00 0.00
10:53 pm 22:53 Clear 20 -6.7 14 -10 78 78 SW 12 19 30.04 1017 10 16 0.00 0.00
11:53 pm 23:53 Clear 21 -6.1 15 -9.4 78 78 WSW 12 19 30.05 1018 10 16 0.00 0.00

Powered by AerisWeather